sat.trackr.live / text

‹ back to catalog

STARLINK-6100

NORAD 57125 · 2023-090AA

PAYLOAD ACTIVE UNKNOWN

§ Identity

Operator
Country
US
Launch date
2023-06-23
Launch site
AFETR
Launch vehicle
Mass (kg)
RCS (m²)

Purposes: comms

External: N2YO · Heavens-Above · Gunter

§ Orbital elements

Epoch: 2026-05-25T04:24:56.329056Z

Period
94.27 min
Inclination
43.0033°
Eccentricity
0.0001733
Mean motion
15.27570806 rev/d
Perigee alt
481.9 km
Apogee alt
484.3 km
Semi-major
6,861.2 km
B*
6.0894e-6
RAAN
191.2175°
Arg perigee
285.3645°
Mean anomaly
74.7015°
Rev number
16,205

§ Raw data

STARLINK-61001 57125U 23090AA  26145.18398529 -.00000095  00000+0  60894-5 0  99932 57125  43.0033 191.2175 0001733 285.3645  74.7015 15.27570806162057

JSON: /api/v1/satellites/57125 · /tle

For live sub-satellite position, see the globe view (requires WebGL).

§ Visibility from observer

Set your observer location to see the next 7 days of passes ≥ 10°. The values pass through the URL so the page stays shareable.

No JS? Fill the form by hand. The geolocation button needs JavaScript.